GFSFLT2_sfc_rhum_099.txt.gz
RH
98 97 99 99 99 99 98 98 96 93 94 90 87 87 84 82 79 77 77 76 75 74 72 72 72 72 72
99 100 99 99 98 99 99 98 97 97 94 90 86 84 83 82 80 79 77 75 72 70 70 72 72 73 73
99 99 99 99 100 100 99 98 95 94 90 87 84 82 83 82 81 79 74 67 61 58 60 66 71 73 74
99 99 98 99 98 97 99 98 96 85 90 87 84 84 81 81 82 79 69 60 58 58 59 62 66 73 75
100 100 99 99 97 99 98 99 98 89 90 88 88 91 81 84 85 77 67 63 62 60 60 60 65 71 76
98 97 95 91 92 95 98 99 100 94 93 91 81 91 80 83 83 75 70 67 64 61 62 62 68 74 77
97 95 94 92 94 98 98 95 98 96 92 94 83 89 77 71 81 78 74 69 64 65 66 66 74 76 82
98 89 86 91 92 92 93 96 96 94 85 95 83 84 79 76 80 79 75 69 65 67 67 70 84 87 85
98 97 96 94 92 97 99 98 100 98 96 94 87 82 75 73 69 74 70 68 68 68 74 79 78 84 82
99 99 98 97 95 89 95 100 100 100 98 96 84 79 86 67 65 71 72 67 70 71 71 69 77 74 75
99 99 99 99 98 95 90 94 100 100 96 94 96 86 90 83 72 67 78 78 71 68 69 68 77 75 76
99 99 99 99 99 99 98 98 96 99 93 94 100 94 94 87 82 78 77 78 78 74 75 76 70 75 72
98 98 98 98 100 99 100 98 97 98 91 100 94 97 95 95 89 90 84 83 82 84 79 77 77 72 77
97 97 99 100 99 99 98 98 97 98 91 98 98 91 92 87 92 91 86 98 88 83 82 78 72 66 69
98 99 99 99 99 99 99 99 98 98 97 88 88 88 88 91 89 81 84 84 90 94 88 84 77 71 62
98 99 99 99 98 99 99 99 98 98 96 94 92 89 87 80 77 79 85 84 93 95 90 94 89 76 63
99 100 100 100 99 98 98 98 99 98 97 96 97 94 94 94 82 74 88 87 92 92 88 86 93 88 67

GFSFLT2_sfc_rhum_105.txt.gz
RH
92 97 99 99 99 99 98 98 96 96 95 93 93 93 96 96 96 93 89 83 80 78 76 75 74 72 72
95 100 99 99 99 99 99 99 98 96 97 94 94 96 97 96 94 91 90 88 83 80 77 76 75 74 73
99 99 99 99 99 99 99 99 99 99 98 98 98 98 96 94 92 91 90 88 86 85 80 77 74 72 71
99 99 99 99 99 99 99 99 99 99 99 98 98 97 96 94 93 91 90 89 84 81 76 70 66 66 67
96 99 99 99 99 98 99 99 99 99 99 99 98 98 97 93 92 92 90 88 83 75 68 67 67 66 66
89 89 96 98 96 99 99 99 99 98 99 99 97 98 96 92 89 90 89 85 79 73 69 67 68 67 66
94 88 88 87 95 98 99 98 95 97 98 98 99 98 94 90 90 90 88 85 80 74 72 70 69 67 68
77 83 89 89 91 94 96 94 96 99 96 98 99 99 98 95 92 91 89 85 81 76 74 72 71 69 80
75 78 80 82 89 96 98 100 99 99 99 98 99 100 99 99 98 92 90 86 81 77 75 73 70 75 86
64 68 70 75 81 92 97 99 98 100 98 98 99 98 100 97 98 97 93 87 84 80 76 73 72 90 89
71 72 72 76 82 92 94 98 99 99 96 95 100 99 100 98 95 98 96 93 89 82 76 74 78 81 94
77 78 81 78 85 90 94 96 99 100 96 94 100 97 99 99 98 95 98 93 90 90 88 80 78 78 78
75 76 80 92 94 92 99 99 100 99 99 100 99 100 100 99 98 96 98 98 92 93 95 90 93 95 96
76 76 90 96 95 93 97 99 100 99 100 100 100 100 100 99 98 99 97 99 98 94 93 93 93 93 93
79 80 86 88 96 96 93 96 99 99 99 99 99 99 100 100 100 99 98 99 97 98 93 95 97 91 89
82 82 85 89 96 95 99 98 98 98 98 98 99 99 100 100 98 99 100 99 97 95 91 94 95 92 84
84 88 88 89 96 96 94 98 98 98 99 98 99 99 98 98 99 99 98 100 98 97 92 90 92 91 84

GFSFLT2_sfc_rhum_111.txt.gz
RH
96 91 97 97 96 97 94 96 94 97 97 98 97 97 96 95 94 94 94 93 95 95 92 87 82 79 77
94 97 98 99 99 99 99 99 98 99 98 98 98 98 97 97 97 96 96 95 96 96 91 88 84 81 78
96 96 99 99 99 99 99 99 99 100 97 97 97 96 97 97 97 97 97 97 98 94 92 92 91 87 80
94 93 95 98 99 99 98 99 99 98 97 96 94 95 96 96 97 98 98 98 97 95 95 96 94 87 82
95 96 95 92 95 97 98 97 97 99 99 98 99 99 98 98 99 99 99 98 97 95 96 96 93 88 85
94 90 92 98 89 95 94 99 99 98 99 98 99 99 99 99 98 99 98 98 98 97 96 95 92 88 86
92 90 93 90 97 96 96 96 94 88 97 96 99 99 98 99 98 99 98 98 98 96 94 92 90 87 83
84 91 87 86 90 91 95 96 94 90 98 98 98 99 98 98 97 98 98 98 96 95 93 90 86 84 83
64 66 67 66 65 79 93 89 84 83 94 99 98 99 99 99 99 97 98 98 96 95 92 88 85 84 82
82 84 76 81 72 88 97 96 85 88 91 100 99 99 100 98 99 98 98 97 96 95 94 91 88 88 88
87 90 88 89 91 87 81 95 97 95 86 94 100 100 100 99 98 99 99 98 98 97 93 91 90 86 92
99 96 92 94 91 90 91 89 90 89 87 89 99 99 100 100 99 98 99 99 98 98 97 92 89 85 81
87 90 90 90 90 92 94 90 92 83 76 91 94 98 100 99 99 98 100 99 99 98 98 98 96 94 98
97 97 92 98 95 95 89 93 94 91 91 95 100 100 99 99 99 100 99 100 99 99 98 96 96 94 93
95 93 92 92 96 95 93 91 91 93 91 94 98 99 99 100 100 98 97 100 99 98 98 98 98 96 94
92 95 94 96 94 97 94 93 95 91 94 94 99 99 99 99 98 99 97 98 98 99 98 100 99 98 94
96 96 98 95 88 98 97 97 94 93 94 97 99 99 98 98 99 95 100 99 99 99 97 98 99 98 95

GFSFLT2_sfc_rhum_114.txt.gz
RH
89 88 90 91 93 91 96 98 97 99 98 98 96 97 98 98 97 96 95 94 94 89 93 93 93 91 90
86 91 90 95 96 96 96 95 98 98 98 97 97 98 99 98 97 96 96 95 94 93 90 87 92 91 91
91 87 91 90 93 96 98 98 96 97 94 96 96 98 98 98 98 98 98 97 96 96 96 93 92 92 92
88 89 88 84 90 95 91 90 94 94 95 96 96 97 96 96 97 98 98 98 97 96 97 97 95 94 94
88 88 87 87 90 86 89 87 87 99 98 98 96 97 98 98 99 99 99 99 98 98 97 98 96 95 94
94 92 86 94 92 96 95 95 93 94 89 91 94 96 97 96 98 99 99 99 98 98 98 97 96 96 96
92 91 96 90 85 87 91 95 92 84 88 90 93 94 93 93 95 96 99 99 99 98 98 97 97 97 97
86 88 91 87 87 82 86 89 91 89 92 97 95 99 96 94 92 95 97 99 99 98 98 98 98 97 96
68 69 69 67 69 84 94 98 93 85 86 92 93 98 98 95 92 92 95 98 98 98 98 98 97 96 94
92 87 81 84 70 85 97 98 91 85 94 94 99 99 99 97 98 97 98 97 98 98 98 97 95 95 93
94 95 94 90 88 88 86 96 95 90 86 93 99 92 97 98 96 96 99 99 99 99 97 96 94 89 95
90 92 91 92 92 91 87 92 91 90 86 91 95 98 94 93 91 95 97 99 100 100 99 96 94 89 85
93 92 92 90 92 96 94 94 95 90 85 90 92 89 94 92 90 88 98 99 99 100 100 98 98 97 98
92 90 92 98 97 97 97 97 97 93 89 88 92 93 92 92 86 87 90 99 100 100 99 99 97 96 95
92 91 89 91 94 96 96 96 99 95 90 92 88 96 97 99 98 89 88 97 99 99 100 99 99 98 97
95 94 95 97 96 97 97 97 95 92 91 89 90 97 99 98 97 98 98 95 98 99 99 100 99 98 96
94 89 94 95 95 96 95 97 96 94 94 92 96 98 98 96 94 94 98 99 98 99 98 98 100 99 97

GFSFLT2_sfc_rhum_117.txt.gz
RH
81 80 83 88 87 84 89 92 93 93 95 98 99 96 95 96 96 94 92 92 92 90 92 92 93 93 92
82 85 88 84 83 90 90 88 88 87 93 95 97 99 99 98 98 98 98 97 97 96 92 90 92 93 93
87 82 86 85 87 84 82 86 79 81 92 95 94 95 96 98 99 98 98 98 98 98 97 96 94 91 94
90 86 89 80 88 91 88 87 85 76 86 86 88 89 93 95 98 98 100 100 98 98 97 97 97 95 93
94 93 90 90 91 89 86 87 86 95 83 78 81 84 91 91 95 97 99 99 99 98 98 98 98 98 96
95 91 91 94 92 90 89 86 88 87 83 79 79 85 83 86 92 95 96 97 99 99 98 98 97 98 98
92 92 91 88 90 95 93 90 88 78 88 89 83 93 89 88 90 90 94 96 97 98 98 98 98 97 98
90 90 91 88 92 85 91 94 90 86 88 95 82 86 84 89 79 88 92 94 95 97 98 98 98 98 98
67 70 71 70 74 85 93 97 90 82 84 94 95 91 96 96 95 90 89 92 95 96 98 99 99 98 98
85 83 86 91 78 88 91 99 96 95 94 92 89 94 94 94 86 90 87 82 91 96 98 99 99 97 98
88 91 87 95 92 89 90 95 97 98 83 91 99 91 97 90 87 80 92 88 89 94 98 99 98 95 98
91 91 94 93 93 94 90 92 95 93 88 92 96 96 91 92 88 82 82 83 96 99 99 98 98 96 94
93 88 90 92 91 98 94 92 94 94 84 94 97 92 97 94 88 86 85 90 84 92 99 100 99 99 100
94 89 90 97 93 96 98 95 99 93 90 89 93 95 97 96 91 87 86 92 89 89 100 100 99 99 98
95 92 83 83 84 94 97 98 100 97 93 92 91 88 88 96 98 94 92 86 85 89 99 100 100 99 98
89 83 83 83 88 88 99 98 98 97 97 92 93 95 95 90 92 93 89 93 88 83 93 99 100 100 99
92 95 87 86 90 94 96 97 96 98 96 96 96 97 97 95 94 86 96 89 84 87 88 90 100 100 98

GFSFLT2_sfc_rhum_120.txt.gz
RH
83 79 79 85 82 78 85 86 89 81 87 91 90 94 94 97 93 91 90 86 84 84 81 82 89 95 95
83 86 84 84 85 87 82 78 86 79 85 91 89 89 89 94 96 96 95 92 91 90 89 88 87 90 94
90 87 86 87 86 88 80 82 73 70 81 81 87 83 82 89 92 96 98 97 98 97 95 92 92 92 93
94 88 90 80 87 86 84 80 79 62 77 73 74 78 80 82 85 94 97 98 99 100 100 99 99 98 96
90 76 88 86 90 89 89 86 80 88 79 77 85 87 80 84 88 91 95 95 96 98 99 99 99 98 98
90 92 91 94 91 92 93 92 91 85 82 82 82 90 87 84 74 77 85 91 95 95 97 98 99 99 98
93 94 94 88 90 94 93 93 93 81 86 86 77 87 87 82 80 82 84 89 93 94 96 97 98 98 98
90 88 91 84 84 86 90 92 93 86 86 93 79 93 80 80 84 82 80 82 89 92 94 96 97 98 98
67 68 69 66 65 78 85 95 89 88 86 97 96 84 79 80 92 69 68 70 76 82 90 95 96 98 98
85 83 78 86 73 90 96 96 93 94 89 96 88 94 92 88 82 76 73 72 72 67 76 92 97 98 98
87 89 88 90 91 90 91 97 96 96 84 92 98 97 95 86 79 75 84 80 78 80 90 89 93 99 100
90 87 93 94 94 94 90 95 95 95 90 94 96 98 93 92 87 75 76 79 86 88 84 90 92 98 97
86 85 93 94 92 94 93 95 96 95 87 96 98 95 100 95 94 89 85 87 83 91 90 94 97 99 100
88 87 89 91 85 80 86 89 96 93 91 91 94 97 95 95 94 90 89 96 88 85 88 88 93 98 99
89 88 78 73 80 74 80 89 97 95 93 91 93 93 92 94 96 89 85 88 86 91 92 90 93 99 99
88 86 93 93 88 81 84 97 96 94 95 97 98 97 96 92 88 93 91 88 86 92 96 93 93 98 99
93 95 95 95 88 92 92 90 91 95 96 98 100 99 98 95 92 70 94 94 92 84 90 91 95 98 99

GFSFLT2_sfc_rhum_123.txt.gz
RH
67 65 65 67 62 62 66 61 67 68 66 74 82 80 87 88 86 89 90 92 92 89 88 85 84 87 89
71 75 73 66 65 67 61 54 62 61 64 76 68 70 70 83 88 85 89 91 91 94 88 88 86 86 90
77 73 72 69 73 67 63 64 57 62 62 64 63 67 73 71 79 86 87 91 91 92 95 92 94 93 84
74 73 69 64 69 73 73 67 70 55 60 62 64 64 69 79 78 80 85 84 88 91 92 96 95 92 90
73 72 67 68 72 72 78 76 72 64 69 68 67 67 70 78 80 79 80 85 85 89 91 92 97 98 95
74 70 67 71 70 75 80 78 83 62 72 73 66 70 70 74 70 72 88 83 88 90 92 93 96 97 99
72 69 73 67 72 80 76 76 75 67 72 75 61 74 69 58 62 66 82 80 79 83 90 92 95 96 98
69 71 70 70 65 66 67 71 69 66 65 82 65 72 65 64 63 73 68 74 77 75 75 86 89 95 97
68 69 68 67 66 66 72 80 79 72 65 78 69 74 72 70 62 66 62 66 75 75 72 73 89 93 95
64 65 69 64 68 68 75 83 82 81 60 80 76 74 76 62 65 66 65 62 69 73 75 78 81 92 95
66 66 64 65 66 67 68 81 87 86 73 82 88 80 78 78 62 64 67 70 69 75 73 76 83 91 98
62 64 70 75 75 77 78 81 83 89 81 84 96 88 90 88 81 64 68 72 77 80 81 81 71 79 89
66 71 72 78 81 82 79 76 81 84 78 87 94 91 89 90 89 83 78 75 78 87 83 85 84 86 97
72 68 70 76 78 75 79 76 85 83 78 82 88 90 93 85 86 88 82 90 78 79 85 85 82 87 95
76 75 72 72 73 72 77 81 92 88 85 81 81 82 86 93 94 85 84 84 82 85 86 89 85 86 91
81 85 84 86 86 83 83 86 91 84 88 87 88 90 84 79 81 89 86 88 85 84 90 96 91 85 92
90 91 91 92 89 88 85 87 87 80 85 89 94 95 93 91 69 62 88 86 83 85 87 90 94 90 87

GFSFLT2_sfc_rhum_129.txt.gz
RH
53 52 54 57 54 54 56 52 52 52 56 59 61 62 62 63 62 61 66 69 70 71 70 78 82 82 79
64 67 63 57 57 59 50 42 49 48 54 57 56 59 62 61 60 61 67 66 69 76 72 71 77 81 81
71 64 63 60 64 61 54 55 44 54 56 55 55 57 56 58 57 60 66 61 62 68 71 74 79 83 85
69 71 66 59 59 61 61 58 60 50 54 53 55 53 54 54 54 58 60 61 62 65 69 75 72 73 76
73 71 68 61 63 61 65 67 63 62 60 59 54 53 54 52 54 56 58 62 64 68 64 66 66 69 71
74 70 64 61 58 66 76 78 84 61 61 60 56 59 55 54 51 54 58 60 63 62 62 63 64 67 68
73 70 69 65 67 74 78 82 80 65 63 68 59 62 55 45 54 56 57 59 61 62 61 63 63 64 67
62 66 69 70 71 74 82 88 76 65 61 75 60 63 60 58 56 57 58 56 59 59 60 61 61 66 69
61 62 60 61 59 65 81 84 82 73 64 70 68 71 66 64 59 52 55 58 56 58 59 60 63 65 73
64 60 55 57 54 63 71 83 84 87 73 80 83 81 86 66 68 61 59 58 58 57 60 61 63 72 76
62 59 58 57 58 67 68 78 86 88 73 78 95 88 88 88 73 68 65 64 63 64 64 67 68 64 79
63 59 64 72 79 80 80 83 80 80 75 78 96 94 94 91 86 71 70 68 72 77 76 72 70 70 70
61 70 76 80 83 82 80 78 81 81 75 82 86 88 92 95 91 86 80 79 80 88 80 82 82 81 82
73 70 70 77 81 81 86 83 86 87 79 76 80 84 92 92 94 92 84 92 82 82 82 82 79 83 84
74 77 74 77 83 84 86 85 92 89 84 80 81 79 82 88 94 86 84 85 83 83 84 83 78 79 76
80 84 88 91 89 86 90 95 94 89 88 84 84 90 85 81 72 85 87 89 85 83 82 87 86 80 78
88 90 91 91 81 89 89 91 92 88 87 86 90 94 95 92 75 58 84 85 87 83 83 85 89 84 82

GFSFLT2_sfc_rhum_132.txt.gz
RH
74 72 71 72 67 69 67 64 66 53 54 56 59 58 59 61 60 61 61 64 65 63 65 66 73 73 79
80 84 78 73 72 73 59 47 62 50 54 59 58 60 57 57 57 58 57 62 62 62 64 62 70 72 69
80 83 79 76 78 74 70 70 50 54 55 54 58 56 56 55 56 56 56 61 62 62 63 63 65 66 69
82 81 79 79 78 79 77 73 78 54 55 59 56 56 55 56 55 56 56 57 60 62 64 64 63 63 63
86 85 81 76 78 77 83 87 76 68 79 76 61 61 65 59 57 57 54 57 58 60 62 62 62 63 64
83 80 73 81 79 86 83 83 87 77 81 73 67 67 71 66 56 57 58 58 58 59 61 62 61 62 63
79 88 84 78 79 76 81 91 89 78 82 83 70 75 68 51 58 60 60 57 62 58 60 59 60 61 61
67 73 76 73 77 79 87 89 92 84 80 86 70 74 66 71 63 61 59 60 58 60 58 58 59 60 62
62 63 66 63 60 65 91 96 85 79 81 82 83 84 77 71 63 59 60 62 59 60 60 59 59 61 69
82 80 74 71 61 70 82 86 86 87 84 90 84 96 85 80 78 70 64 64 63 63 60 60 62 68 71
93 82 76 76 72 74 78 93 91 90 82 83 90 89 91 87 74 70 67 70 72 67 68 67 66 66 76
85 79 81 83 86 89 86 91 92 88 77 84 90 93 95 92 86 71 70 79 79 85 78 76 72 71 67
74 82 91 93 90 93 89 87 88 84 76 85 93 92 96 94 92 87 81 80 85 86 92 83 86 82 89
80 82 83 89 85 89 92 92 96 88 84 87 91 90 93 91 94 91 85 91 81 80 84 84 83 82 83
77 79 77 78 84 87 91 92 96 92 89 86 85 85 87 89 92 85 80 82 82 85 88 89 86 82 79
83 89 90 92 91 90 92 96 95 90 89 88 90 92 88 86 80 88 85 88 85 84 90 94 87 78 75
90 92 94 95 90 91 90 91 93 91 90 90 95 96 95 92 75 59 80 81 88 88 83 83 90 84 80

GFSFLT2_sfc_rhum_138.txt.gz
RH
83 80 80 79 75 75 75 74 74 59 53 55 58 57 59 59 58 58 57 58 60 60 62 62 63 63 61
83 88 87 80 81 83 67 59 71 57 57 59 58 56 60 59 58 57 57 59 58 59 60 60 62 63 62
93 92 90 86 87 84 78 78 61 59 58 57 58 59 58 59 58 58 57 58 58 58 58 60 60 61 62
90 92 92 86 93 91 87 85 83 61 62 62 61 61 63 63 61 60 59 59 58 60 60 61 59 59 60
91 93 92 93 90 87 87 87 90 83 82 82 80 80 77 69 65 64 61 58 61 62 62 60 61 60 59
94 92 92 91 94 92 92 96 94 81 90 82 86 83 81 77 68 61 60 61 61 61 61 62 62 63 62
90 94 93 93 92 92 94 94 88 80 83 86 86 83 78 63 67 64 63 63 62 61 61 62 61 61 62
78 78 83 78 84 78 91 98 94 86 94 97 75 76 77 80 70 66 66 62 60 63 60 60 61 62 62
67 72 71 68 67 90 99 95 87 77 81 89 88 92 75 74 75 69 62 63 60 61 63 64 63 64 67
75 76 74 83 73 86 88 91 89 91 84 94 88 90 95 86 83 79 76 68 65 66 65 64 64 70 76
83 82 85 96 94 86 82 88 93 87 81 92 98 96 91 89 83 83 80 72 72 73 68 69 68 68 78
96 96 97 96 90 90 85 90 90 84 83 87 98 97 97 92 84 78 82 82 83 79 79 75 74 72 67
82 86 89 89 89 92 90 88 90 90 78 91 97 94 98 95 91 82 82 81 82 84 84 86 87 84 87
86 81 83 96 94 92 96 96 98 91 89 90 93 95 96 90 88 92 83 92 89 84 84 82 80 79 81
88 85 80 85 90 96 90 96 98 94 91 94 90 89 92 94 96 87 82 86 84 85 86 89 84 81 79
90 91 92 96 93 92 97 96 95 93 93 90 93 99 92 89 85 92 86 88 86 86 86 94 88 78 72
92 95 97 95 89 93 94 96 94 92 93 92 96 94 96 93 74 62 82 83 84 85 83 85 89 81 75

GFSFLT2_sfc_rhum_141.txt.gz
RH
88 84 81 80 75 77 76 77 78 65 57 56 60 60 59 60 60 58 60 59 60 61 60 60 58 59 60
88 89 89 86 82 82 71 62 74 61 58 60 60 59 59 60 59 61 60 60 60 60 60 59 60 59 60
84 94 94 91 88 87 84 82 65 62 60 60 60 61 62 62 62 62 61 61 60 60 60 61 61 62 62
88 91 92 87 93 95 90 86 84 65 66 66 63 61 63 66 64 62 62 61 61 61 62 62 61 61 62
89 94 95 95 92 89 89 90 90 88 85 81 83 86 86 77 68 64 65 63 60 61 62 61 61 62 61
91 94 92 94 94 93 94 97 97 86 88 89 89 91 88 89 72 66 63 61 62 62 62 62 62 62 61
88 91 93 92 93 94 94 93 87 79 86 91 85 86 84 67 64 64 63 64 64 63 61 62 62 62 62
89 87 87 83 86 80 84 87 91 87 94 96 80 80 71 75 69 65 65 65 63 60 59 61 62 63 64
67 69 69 68 72 94 98 98 95 83 90 94 82 87 82 71 69 67 62 62 61 59 64 64 65 64 68
80 76 70 77 70 81 93 97 95 91 81 91 89 87 91 83 80 76 75 64 64 66 67 66 66 71 78
82 80 80 82 86 89 92 97 96 92 80 91 98 95 94 88 80 80 81 74 72 72 69 68 68 69 80
89 88 89 95 96 96 91 90 87 82 76 84 97 96 99 92 86 76 77 81 83 82 79 75 73 72 71
94 92 93 92 93 96 92 88 89 87 79 91 96 94 99 94 88 85 82 78 86 88 84 84 84 83 88
94 84 89 97 96 91 94 91 92 90 90 90 93 96 96 88 88 92 83 93 91 90 89 86 82 80 83
98 95 85 84 87 90 92 94 97 92 92 94 90 90 93 95 95 84 84 85 81 85 87 89 85 83 80
97 94 92 92 93 97 98 96 94 93 95 94 98 100 94 90 85 91 88 89 85 85 86 94 88 80 75
97 95 95 95 90 97 97 98 96 93 93 93 100 99 96 92 78 62 89 85 84 86 86 89 90 82 75

GFSFLT2_sfc_rhum_144.txt.gz
RH
88 87 83 78 77 79 76 80 80 65 60 60 58 61 62 61 60 60 58 60 61 61 61 60 58 55 55
85 89 89 87 88 88 68 65 77 64 60 58 60 61 61 61 60 59 62 62 62 60 61 60 59 58 58
81 92 94 93 90 86 86 86 68 65 63 62 61 62 63 63 60 64 63 64 63 62 62 60 62 61 58
86 88 91 87 92 93 92 88 84 68 67 67 68 66 61 64 65 65 64 63 63 62 61 61 63 61 60
84 91 92 93 94 89 91 91 93 90 88 84 80 81 83 78 74 69 65 64 65 62 62 62 62 61 62
81 84 83 93 95 92 94 98 97 85 88 87 86 85 87 91 78 69 66 66 64 63 64 64 63 62 62
79 85 86 86 92 94 96 96 90 85 90 90 87 90 87 75 71 63 62 64 64 65 65 62 62 62 61
86 84 83 82 83 84 86 91 91 83 85 96 90 85 85 84 69 64 63 65 65 65 62 61 61 64 63
72 76 77 74 81 89 97 97 92 83 92 96 87 88 84 76 77 67 64 62 61 58 60 61 64 65 70
88 81 72 73 69 76 97 98 86 88 84 95 90 89 89 80 80 76 72 65 62 65 65 66 66 74 84
89 83 80 81 83 82 89 95 95 94 82 88 97 97 94 90 84 80 80 76 74 71 69 67 67 69 79
89 93 90 88 88 96 98 99 94 91 84 86 97 95 98 92 88 77 80 83 84 80 78 74 73 72 71
94 89 91 89 94 99 99 98 95 91 82 89 96 94 96 94 92 85 83 86 89 91 91 88 85 83 89
92 94 96 99 98 96 98 95 95 88 89 89 94 95 96 93 92 91 81 92 94 93 91 88 83 80 83
96 93 95 96 96 96 97 96 96 92 97 97 92 92 94 94 96 88 81 80 83 86 87 88 82 80 80
97 97 96 96 97 96 97 96 96 94 96 98 99 100 96 92 86 89 84 85 84 86 86 94 88 79 75
95 95 96 97 96 97 96 96 96 95 96 98 100 99 96 94 84 62 92 90 91 92 89 90 91 84 76